JL1RTQ-13 Weather Reports


time (UTC)temp
C
wind
direction
speed
KPH
gust
KPH
rain 1hr
cm
rain 24hr
cm
rain mn
cm
humidity
%
barometer
mb
20260504204530 12 259 6.4 12.9 0.00 0.25 0.00 48 1018.6
20260504203030 12 274 6.4 19.3 0.00 0.25 0.00 49 1018.2
20260504201529 12 290 9.7 20.9 0.00 0.25 0.00 49 1017.9
20260504200035 12 326 11.3 24.1 0.00 0.25 0.00 50 1017.6
20260504194531 12 330 11.3 20.9 0.00 0.56 0.00 51 1017.4
20260504193030 12 291 12.9 20.9 0.00 0.56 0.00 51 1017.1
20260504191533 11 326 9.7 20.9 0.00 0.56 0.00 52 1016.9
20260504190032 11 313 6.4 20.9 0.00 0.56 0.00 53 1016.7
20260504184536 11 281 8.0 24.1 0.00 0.56 0.00 53 1016.4
20260504183036 11 13 11.3 30.6 0.00 0.56 0.00 53 1016.0
20260504181532 11 340 19.3 38.6 0.00 0.56 0.00 54 1015.4
20260504180030 12 309 19.3 51.5 0.00 0.56 0.00 53 1014.9
20260504174532 12 309 12.9 43.5 0.00 0.56 0.00 53 1014.2
20260504173029 12 337 16.1 40.2 0.00 0.56 0.00 52 1014.0
20260504171530 12 336 16.1 37.0 0.00 0.56 0.00 51 1013.7
20260504081533 25 1 17.7 32.2 0.00 0.61 0.61 47 997.8
20260504044532 27 99 8.0 19.3 0.00 0.64 0.61 56 995.0
20260504043044 27 348 4.8 16.1 0.00 0.64 0.61 58 995.3
20260504041535 27 46 11.3 19.3 0.00 0.64 0.61 57 995.1
20260504040029 27 51 8.0 16.1 0.00 0.64 0.61 57 995.6
20260504034528 27 46 11.3 22.5 0.00 0.64 0.61 59 995.9
20260504033028 27 47 6.4 12.9 0.00 0.64 0.61 59 996.1
20260504031530 26 28 8.0 16.1 0.00 0.64 0.61 62 995.9
20260504030036 26 113 6.4 19.3 0.00 0.64 0.61 61 996.6
20260504024529 26 241 1.6 8.0 0.00 0.64 0.61 62 996.7
20260504023028 25 269 3.2 6.4 0.00 0.64 0.61 62 996.9
20260504021540 25 195 3.2 8.0 0.00 0.64 0.61 65 997.2
20260504020037 23 60 1.6 8.0 0.00 0.64 0.61 69 997.2
20260504014530 22 21 3.2 11.3 0.00 0.64 0.61 73 997.5
20260504013035 22 20 6.4 12.9 0.00 0.64 0.61 72 997.6
20260504011528 22 51 3.2 12.9 0.00 0.64 0.61 72 997.6
20260504010032 21 55 4.8 11.3 0.00 0.64 0.61 73 997.8
20260504004541 21 281 3.2 11.3 0.00 0.64 0.61 74 998.1
20260504003030 20 20 4.8 12.9 0.00 0.64 0.61 75 998.1
20260504001535 20 50 4.8 9.7 0.00 0.64 0.61 76 998.4
20260504000031 19 298 4.8 11.3 0.00 0.64 0.61 78 998.3
20260503234534 18 249 1.6 6.4 0.00 0.64 0.61 80 998.4
20260503233027 18 13 4.8 9.7 0.00 0.64 0.61 81 998.3
20260503231532 17 6 6.4 11.3 0.00 0.64 0.61 82 998.0
20260503230030 17 8 4.8 14.5 0.00 0.64 0.61 82 998.3
20260503224529 17 318 6.4 9.7 0.00 0.64 0.61 83 998.0
20260503223028 16 337 4.8 9.7 0.00 0.64 0.61 85 997.8
20260503221534 16 307 4.8 14.5 0.00 0.64 0.61 86 997.8
20260503220037 16 293 4.8 12.9 0.00 0.64 0.61 87 998.1
20260503214546 16 335 9.7 17.7 0.00 0.64 0.61 88 997.6
20260503213034 16 304 6.4 14.5 0.00 0.64 0.61 89 997.5
20260503211531 16 281 8.0 14.5 0.03 0.64 0.61 90 997.6
20260503210028 16 311 4.8 16.1 0.23 0.64 0.61 91 997.6